NIMBUS 2 DEB

Satellite information

Favourite Embed

Satellite Type and Status

DEBRISIN ORBIT

Key statistics

Satellite NIMBUS 2 DEB at a glance.

Uptime

21663

Days in orbit

Revolutions

≈ 13.8

Per day

Orbit

SSO

Sun Synchronous Orbit

Inclination

100.4

Latest

Satellite identification and parameters

Extended collection of information and parameters for NIMBUS 2 DEB.

Object identification

Identified? True

Debris? True

Object name: NIMBUS 2 DEB

International designator: 1966-040AB

Object number (NORAD): 28612

Object ID (CCSDS): 28612

Country: UNITED STATES OF AMERICA (US)

Current information (Y/N): Y

RCS size: SMALL

Orbital parameters

Period: 104.662 minutes

Inclination: 100.3811 deg

SMA: 7356.738 km

Apoapsis: 1012.03 km

Periapsis: 945.176 km

RAAN: 100.6102 deg

Eccentricy: 0.00454378

Argument of periapsis: 43.9105 deg

Mean anomaly: 134.9954 deg

Mean motion: 13.75861847 rev/day

Mean motion (dot): 0.00004935 rev/day2

B* drag term: 0.0051065317 1/REarth

Two-line elements (TLE)

Creation date: Sept. 4, 2025, 4:29 a.m.

Reference frame: TEME

Reference center: EARTH

Epoch: Sept. 3, 2025, 9:24 a.m. UTC

TLE line 0: 0 NIMBUS 2 DEB

TLE line 1: 1 28612U 66040AB 25246.39205712 .00004935 00000-0 51065-2 0 9993

TLE line 2: 2 28612 100.3811 100.6102 0045438 43.9105 134.9954 13.75861847660840

Live tracking on map

Real-time ground track for satellite NIMBUS 2 DEB.

In-orbit conjunctions

A list of the most updated potential collisions computed for object NIMBUS 2 DEB.

Target Orbit TCA Probability of collision Miss distance Type
CZ-6A DEB LEO 2025-01-08 02:47:23 0.0001699106 783.0 (m) DEBRIS
COSMOS 489 LEO 2024-10-05 03:57:42 0.0001117436 504.0 (m) PAYLOAD

Associated space launch

Nimbus 2, the second in a series of second-generation meteorological research-and-development satellites, added an additional medium-resolution infrared radiometer (MRIR) compared to Nimbus 1.

NIMBUS 2 DEB was lifted into orbit during the mission ‘Thor SLV-2A Agena B | Nimbus 2’, on board a Thor SLV-2A Agena B space rocket.

The launch took place on May 15, 1966, 7:55 a.m. from Space Launch Complex 2E.

For more information about the launch, click the button.

Launch to space Thor SLV-2A Agena B | Nimbus 2
Thor SLV-2A Agena B | Nimbus 2

Agency: N/A

Status: Launch Successful

Launch date: May 15, 1966, 7:55 a.m. UTC

Rocket: Thor SLV-2A Agena B

Launch pad: Space Launch Complex 2E

Location: Vandenberg SFB, CA, USA

...

Latest news about this satellite

There are no fresh news available about this satellite. Check back as we update our databases every day.


Newsletter sign-up

Weekly statistics, charts and insights to help you stay on top of the space industry.